Home > Weather > Grenchen > Past weeks

Flag for Switzerland Past Weather in Grenchen, Solothurn, Switzerland — Yesterday and Last 2 Weeks

Now
53 °F

Cool.


Feels Like: 53 °F
Forecast: 50 / 79 °F
Wind: 2 mph from Southwest

Location: Grenchen

Current Time: May 26, 2016 at 9:07:43 AM

Latest Report: May 26, 2016 at 8:00 AM


Visibility: N/A

Pressure: 30.04 "Hg

Humidity: 97%

Dew Point: 53 °F

Location of GrenchenLocation

Past Weather in Grenchen — Graph

°F

Grenchen Temperature Yesterday

Maximum temperature yesterday: 65 °F (at 3:00 PM)
Minimum temperature yesterday: 44 °F (at 4:40 AM)
Average temperature yesterday: 55 °F

High & Low Weather Summary for the Past Weeks

 TemperatureHumidityPressure
High76 °F (May 22, 4:00 PM)100% (May 20, 3:00 AM)30.26 "Hg (May 20, 3:00 AM)
Low38 °F (May 16, 4:00 AM)37% (May 18, 4:40 PM)29.50 "Hg (May 11, 7:00 PM)
Average54 °F80%29.95 "Hg
* Reported May 11 7:00 AM — May 26 7:00 AM, Grenchen, Weather by CustomWeather, © 2016

Note: Actual official high and low records may vary slightly from our data, if they occured in-between our weather recording intervals... More about our weather records

Advertising

Grenchen Weather History for the Previous 24 Hours

Scroll right to see more
 ConditionsComfort  
Time TempWeatherWind HumidityBarometerVisibility
7:00 AM
Thu, May 26
49 °FCool.2 mph99%30.05 "HgN/A
6:00 AM47 °FCool.1 mph99%30.06 "HgN/A
5:00 AM48 °FCool.1 mph99%30.05 "HgN/A
3:00 AM50 °FCool.1 mph99%30.03 "HgN/A
2:00 AM51 °FCool.1 mph99%30.03 "HgN/A
1:00 AM52 °FCool.1 mph97%30.03 "HgN/A
12:00 AM52 °FCool.No wind96%30.02 "HgN/A
11:00 PM
Wed, May 25
53 °FCool.1 mph94%30.01 "HgN/A
10:00 PM56 °FCool.2 mph85%29.99 "HgN/A
9:00 PM58 °FCool.3 mph86%29.98 "HgN/A
8:00 PM61 °FCool.5 mph73%29.96 "HgN/A
7:00 PM63 °FMild.7 mph69%29.94 "HgN/A
6:00 PM64 °FMild.7 mph65%29.93 "HgN/A
5:00 PM64 °FMild.7 mph62%29.93 "HgN/A
4:00 PM64 °FMild.6 mph59%29.92 "HgN/A
3:00 PM65 °FMild.3 mph56%29.92 "HgN/A
2:00 PM64 °FMild.3 mph58%29.92 "HgN/A
1:00 PM62 °FCool.3 mph61%29.94 "HgN/A
12:00 PM60 °FCool.2 mph67%29.96 "HgN/A
11:00 AM57 °FCool.3 mph73%29.97 "HgN/A
9:00 AM52 °FCool.5 mph89%29.99 "HgN/A
Weather by CustomWeather, © 2016

See weather overviewHow to use our weather pages